INMARSAT 3-F2

Last updated on Wed Sep 09 2026 00:02:57 GMT+0000 (Coordinated Universal Time)

1 24307U 96053A 26251.45773322 .00000042 00000+0 00000+0 0 9992 2 24307 10.0407 53.0646 0005758 111.0650 51.8299 0.99976255109751
UTC large
Height (km)
Speed (km/s)
/
Latitude / Longitude
Inclination (degrees)
Orbital Period (minutes)
Azimuth
Elevation
Range (km)
Doppler Factor

Next 0 passes for location: London (51.5072 / 0.1276)

No passes found over London.
INMARSAT 3-F2